Time,TemperatureF,DewpointF,PressureIn,WindDirection,WindDirectionDegrees,WindSpeedMPH,WindSpeedGustMPH,Humidity,HourlyPrecipIn,Conditions,Clouds,dailyrainin,SoftwareType,DateUTC
2013-09-18 00:04:00,50.6,47.2,27.95,SSE,167,0.0,0.0,88,0.00,,---,0.00,VWS V14.01,2013-09-18 05:04:00,
2013-09-18 00:09:00,50.5,47.4,27.95,South,171,7.0,7.0,89,0.00,,---,0.00,VWS V14.01,2013-09-18 05:09:00,
2013-09-18 00:14:00,50.4,47.3,27.95,SE,142,3.0,4.0,89,0.00,,---,0.00,VWS V14.01,2013-09-18 05:14:00,
2013-09-18 00:19:00,50.5,47.4,27.95,SSW,202,0.0,6.0,89,0.00,,---,0.00,VWS V14.01,2013-09-18 05:19:00,
2013-09-18 00:24:00,50.5,47.4,27.95,SSW,200,0.0,0.0,89,0.00,,---,0.00,VWS V14.01,2013-09-18 05:24:00,
2013-09-18 00:30:00,50.8,47.7,27.95,SSW,198,4.0,4.0,89,0.00,,---,0.00,VWS V14.01,2013-09-18 05:30:00,
2013-09-18 00:31:00,50.8,47.7,27.95,SSW,193,3.0,3.0,89,0.00,,---,0.00,VWS V14.01,2013-09-18 05:31:00,
2013-09-18 00:36:00,51.0,47.9,27.95,SSE,151,5.0,5.0,89,0.00,,---,0.00,VWS V14.01,2013-09-18 05:36:00,
2013-09-18 00:41:00,51.3,47.9,27.95,South,173,2.0,4.0,88,0.00,,---,0.00,VWS V14.01,2013-09-18 05:41:00,
2013-09-18 00:46:00,51.3,47.9,27.94,SSE,166,0.0,0.0,88,0.00,,---,0.00,VWS V14.01,2013-09-18 05:46:00,
2013-09-18 00:51:00,51.2,47.8,27.94,SSE,161,4.0,9.0,88,0.00,,---,0.00,VWS V14.01,2013-09-18 05:51:00,
2013-09-18 00:57:00,51.2,47.8,27.94,SW,218,2.0,4.0,88,0.00,,---,0.00,VWS V14.01,2013-09-18 05:57:00,
2013-09-18 01:02:00,51.2,48.1,27.94,SE,143,2.0,4.0,89,0.00,,---,0.00,VWS V14.01,2013-09-18 06:02:00,
2013-09-18 01:07:00,51.2,48.1,27.94,SW,234,2.0,6.0,89,0.00,,---,0.00,VWS V14.01,2013-09-18 06:07:00,
2013-09-18 01:12:00,51.5,48.4,27.94,South,186,2.0,10.0,89,0.00,,---,0.00,VWS V14.01,2013-09-18 06:12:00,
2013-09-18 01:17:00,51.8,48.7,27.94,South,174,1.0,1.0,89,0.00,,---,0.00,VWS V14.01,2013-09-18 06:17:00,
2013-09-18 01:22:00,51.9,48.8,27.94,SSE,149,0.0,1.0,89,0.00,,---,0.00,VWS V14.01,2013-09-18 06:22:00,
2013-09-18 01:28:00,52.1,49.0,27.94,SE,134,3.0,3.0,89,0.00,,---,0.00,VWS V14.01,2013-09-18 06:28:00,
2013-09-18 01:33:00,52.3,49.5,27.94,SSW,199,5.0,5.0,90,0.00,,---,0.00,VWS V14.01,2013-09-18 06:33:00,
2013-09-18 01:38:00,52.5,49.4,27.94,SSW,209,3.0,4.0,89,0.00,,---,0.00,VWS V14.01,2013-09-18 06:38:00,
2013-09-18 01:43:00,52.7,49.5,27.94,SSW,200,2.0,3.0,89,0.00,,---,0.00,VWS V14.01,2013-09-18 06:43:00,
2013-09-18 01:48:00,52.8,50.0,27.94,SW,235,4.0,5.0,90,0.00,,---,0.00,VWS V14.01,2013-09-18 06:48:00,
2013-09-18 01:54:00,53.0,50.2,27.94,South,173,1.0,4.0,90,0.00,,---,0.00,VWS V14.01,2013-09-18 06:54:00,
2013-09-18 01:59:00,53.1,50.2,27.94,South,189,0.0,2.0,90,0.00,,---,0.00,VWS V14.01,2013-09-18 06:59:00,
2013-09-18 02:04:00,53.2,50.3,27.93,South,180,3.0,6.0,90,0.00,,---,0.00,VWS V14.01,2013-09-18 07:04:00,
2013-09-18 02:09:00,53.2,50.3,27.93,SSE,147,0.0,4.0,90,0.00,,---,0.00,VWS V14.01,2013-09-18 07:09:00,
2013-09-18 02:14:00,53.2,50.3,27.93,SSW,192,2.0,3.0,90,0.00,,---,0.00,VWS V14.01,2013-09-18 07:14:00,
2013-09-18 02:20:00,53.3,50.2,27.92,SSW,212,5.0,7.0,89,0.00,,---,0.00,VWS V14.01,2013-09-18 07:20:00,
2013-09-18 02:25:00,53.3,50.2,27.92,SW,229,0.0,2.0,89,0.00,,---,0.00,VWS V14.01,2013-09-18 07:25:00,
2013-09-18 02:30:00,53.2,50.0,27.92,South,182,2.0,3.0,89,0.00,,---,0.00,VWS V14.01,2013-09-18 07:30:00,
2013-09-18 02:35:00,53.1,50.2,27.92,South,183,0.0,2.0,90,0.00,,---,0.00,VWS V14.01,2013-09-18 07:35:00,
2013-09-18 02:40:00,53.0,50.2,27.92,South,184,3.0,4.0,90,0.00,,---,0.00,VWS V14.01,2013-09-18 07:40:00,
2013-09-18 02:46:00,52.9,50.0,27.92,ESE,120,1.0,4.0,90,0.00,,---,0.00,VWS V14.01,2013-09-18 07:46:00,
2013-09-18 02:51:00,52.8,50.2,27.91,South,177,0.0,3.0,91,0.00,,---,0.00,VWS V14.01,2013-09-18 07:51:00,
2013-09-18 02:56:00,52.8,50.2,27.91,SSE,159,1.0,3.0,91,0.00,,---,0.00,VWS V14.01,2013-09-18 07:56:00,
2013-09-18 03:01:00,52.8,50.2,27.91,South,180,2.0,4.0,91,0.00,,---,0.00,VWS V14.01,2013-09-18 08:01:00,
2013-09-18 03:06:00,52.7,50.2,27.91,WSW,238,2.0,5.0,91,0.00,,---,0.00,VWS V14.01,2013-09-18 08:06:00,
2013-09-18 03:12:00,52.6,50.0,27.91,SSE,167,0.0,3.0,91,0.00,,---,0.00,VWS V14.01,2013-09-18 08:12:00,
2013-09-18 03:17:00,52.6,50.0,27.89,SE,124,5.0,5.0,91,0.00,,---,0.00,VWS V14.01,2013-09-18 08:17:00,
2013-09-18 03:22:00,52.5,50.2,27.89,SSW,202,2.0,7.0,92,0.00,,---,0.00,VWS V14.01,2013-09-18 08:22:00,
2013-09-18 03:27:00,52.5,50.2,27.89,South,188,1.0,6.0,92,0.00,,---,0.00,VWS V14.01,2013-09-18 08:27:00,
2013-09-18 03:32:00,52.6,50.3,27.89,SE,143,0.0,1.0,92,0.00,,---,0.00,VWS V14.01,2013-09-18 08:32:00,
2013-09-18 03:37:00,52.6,50.3,27.89,SSW,196,2.0,4.0,92,0.00,,---,0.00,VWS V14.01,2013-09-18 08:37:00,
2013-09-18 03:42:00,52.6,50.3,27.89,South,175,1.0,12.0,92,0.00,,---,0.00,VWS V14.01,2013-09-18 08:42:00,
2013-09-18 03:47:00,52.6,50.3,27.89,SE,145,0.0,1.0,92,0.00,,---,0.00,VWS V14.01,2013-09-18 08:47:00,
2013-09-18 03:53:00,52.6,50.3,27.89,SSE,163,7.0,7.0,92,0.00,,---,0.00,VWS V14.01,2013-09-18 08:53:00,
2013-09-18 03:58:00,52.7,50.5,27.89,SE,140,0.0,4.0,92,0.00,,---,0.00,VWS V14.01,2013-09-18 08:58:00,
2013-09-18 04:03:00,52.7,50.5,27.89,South,180,1.0,6.0,92,0.00,,---,0.00,VWS V14.01,2013-09-18 09:03:00,
2013-09-18 04:08:00,52.7,50.7,27.89,West,267,0.0,2.0,93,0.00,,---,0.00,VWS V14.01,2013-09-18 09:08:00,
2013-09-18 04:13:00,52.7,50.7,27.89,SSW,192,0.0,0.0,93,0.00,,---,0.00,VWS V14.01,2013-09-18 09:13:00,
2013-09-18 04:19:00,52.6,50.6,27.89,SSW,209,1.0,2.0,93,0.00,,---,0.00,VWS V14.01,2013-09-18 09:19:00,
2013-09-18 04:24:00,52.6,50.6,27.89,South,178,0.0,2.0,93,0.00,,---,0.00,VWS V14.01,2013-09-18 09:24:00,
2013-09-18 04:29:00,52.7,50.7,27.89,SSE,153,4.0,4.0,93,0.00,,---,0.00,VWS V14.01,2013-09-18 09:29:00,
2013-09-18 04:34:00,52.8,50.5,27.89,SSE,159,0.0,4.0,92,0.00,,---,0.00,VWS V14.01,2013-09-18 09:34:00,
2013-09-18 04:39:00,52.8,50.5,27.89,SSE,163,0.0,0.0,92,0.00,,---,0.00,VWS V14.01,2013-09-18 09:39:00,
2013-09-18 04:44:00,52.7,50.5,27.89,SSW,211,1.0,1.0,92,0.00,,---,0.00,VWS V14.01,2013-09-18 09:44:00,
2013-09-18 04:49:00,52.8,50.5,27.89,SSE,150,4.0,4.0,92,0.00,,---,0.00,VWS V14.01,2013-09-18 09:49:00,
2013-09-18 04:54:00,52.8,50.8,27.89,South,183,3.0,3.0,93,0.00,,---,0.00,VWS V14.01,2013-09-18 09:54:00,
2013-09-18 04:59:00,52.8,50.8,27.89,South,178,0.0,4.0,93,0.00,,---,0.00,VWS V14.01,2013-09-18 09:59:00,
2013-09-18 05:04:00,52.9,50.9,27.89,SSW,193,0.0,3.0,93,0.00,,---,0.00,VWS V14.01,2013-09-18 10:04:00,
2013-09-18 05:09:00,52.9,50.9,27.89,South,172,1.0,2.0,93,0.00,,---,0.00,VWS V14.01,2013-09-18 10:09:00,
2013-09-18 05:15:00,52.9,50.9,27.89,SSE,153,2.0,2.0,93,0.00,,---,0.00,VWS V14.01,2013-09-18 10:15:00,
2013-09-18 05:20:00,52.9,50.9,27.88,SSE,165,1.0,4.0,93,0.00,,---,0.00,VWS V14.01,2013-09-18 10:20:00,
2013-09-18 05:25:00,52.9,50.9,27.88,South,183,1.0,6.0,93,0.00,,---,0.00,VWS V14.01,2013-09-18 10:25:00,
2013-09-18 05:30:00,52.9,50.9,27.88,SW,228,1.0,3.0,93,0.00,,---,0.00,VWS V14.01,2013-09-18 10:30:00,
2013-09-18 05:35:00,52.8,50.8,27.88,SE,134,2.0,5.0,93,0.00,,---,0.00,VWS V14.01,2013-09-18 10:35:00,
2013-09-18 05:40:00,52.8,51.1,27.88,SSE,149,1.0,5.0,94,0.00,,---,0.00,VWS V14.01,2013-09-18 10:40:00,
2013-09-18 05:45:00,52.8,51.1,27.88,SSW,211,7.0,7.0,94,0.00,,---,0.00,VWS V14.01,2013-09-18 10:45:00,
2013-09-18 05:50:00,52.7,51.0,27.88,ENE,69,1.0,3.0,94,0.00,,---,0.00,VWS V14.01,2013-09-18 10:50:00,
2013-09-18 05:55:00,52.7,51.0,27.88,SSE,152,0.0,4.0,94,0.00,,---,0.00,VWS V14.01,2013-09-18 10:55:00,
2013-09-18 06:00:00,52.7,51.0,27.88,South,175,0.0,4.0,94,0.00,,---,0.00,VWS V14.01,2013-09-18 11:00:00,
2013-09-18 06:05:00,52.6,51.2,27.88,SSW,197,0.0,6.0,95,0.00,,---,0.00,VWS V14.01,2013-09-18 11:05:00,
2013-09-18 06:10:00,52.6,51.2,27.88,SSE,159,6.0,8.0,95,0.00,,---,0.00,VWS V14.01,2013-09-18 11:10:00,
2013-09-18 06:16:00,52.5,51.1,27.88,SSE,159,0.0,1.0,95,0.00,,---,0.00,VWS V14.01,2013-09-18 11:16:00,
2013-09-18 06:21:00,52.5,51.1,27.88,SSE,161,0.0,4.0,95,0.00,,---,0.00,VWS V14.01,2013-09-18 11:21:00,
2013-09-18 06:26:00,52.4,51.0,27.88,South,182,3.0,6.0,95,0.00,,---,0.00,VWS V14.01,2013-09-18 11:26:00,
2013-09-18 06:31:00,52.4,51.0,27.88,South,190,2.0,2.0,95,0.00,,---,0.00,VWS V14.01,2013-09-18 11:31:00,
2013-09-18 06:36:00,52.4,51.0,27.88,SSE,149,2.0,4.0,95,0.00,,---,0.00,VWS V14.01,2013-09-18 11:36:00,
2013-09-18 06:41:00,52.4,51.3,27.88,SSE,157,3.0,5.0,96,0.00,,---,0.00,VWS V14.01,2013-09-18 11:41:00,
2013-09-18 06:46:00,52.4,51.3,27.88,SE,143,0.0,0.0,96,0.00,,---,0.00,VWS V14.01,2013-09-18 11:46:00,
2013-09-18 06:52:00,52.5,51.4,27.88,ESE,119,2.0,3.0,96,0.00,,---,0.00,VWS V14.01,2013-09-18 11:52:00,
2013-09-18 06:57:00,52.6,51.5,27.88,SSE,151,0.0,5.0,96,0.00,,---,0.00,VWS V14.01,2013-09-18 11:57:00,
2013-09-18 07:02:00,52.6,51.5,27.88,SW,227,0.0,2.0,96,0.00,,---,0.00,VWS V14.01,2013-09-18 12:02:00,
2013-09-18 07:07:00,52.6,51.5,27.88,SSW,207,3.0,7.0,96,0.00,,---,0.00,VWS V14.01,2013-09-18 12:07:00,
2013-09-18 07:12:00,52.6,51.5,27.88,SE,133,5.0,5.0,96,0.00,,---,0.00,VWS V14.01,2013-09-18 12:12:00,
2013-09-18 07:17:00,52.7,51.6,27.88,SSW,202,3.0,3.0,96,0.00,,---,0.00,VWS V14.01,2013-09-18 12:17:00,
2013-09-18 07:22:00,52.7,51.6,27.88,South,174,4.0,4.0,96,0.00,,---,0.00,VWS V14.01,2013-09-18 12:22:00,
2013-09-18 07:27:00,52.8,51.7,27.88,ESE,119,1.0,5.0,96,0.00,,---,0.00,VWS V14.01,2013-09-18 12:27:00,
2013-09-18 07:32:00,52.8,51.7,27.88,SW,221,4.0,4.0,96,0.00,,---,0.00,VWS V14.01,2013-09-18 12:32:00,
2013-09-18 07:38:00,52.9,52.1,27.88,SSE,150,0.0,1.0,97,0.00,,---,0.00,VWS V14.01,2013-09-18 12:38:00,
2013-09-18 07:43:00,52.9,52.1,27.88,SSE,150,1.0,3.0,97,0.00,,---,0.00,VWS V14.01,2013-09-18 12:43:00,
2013-09-18 07:48:00,53.0,52.2,27.88,South,174,0.0,2.0,97,0.00,,---,0.00,VWS V14.01,2013-09-18 12:48:00,
2013-09-18 07:53:00,53.0,52.2,27.88,South,175,0.0,0.0,97,0.00,,---,0.00,VWS V14.01,2013-09-18 12:53:00,
2013-09-18 07:59:00,53.2,52.4,27.88,South,173,4.0,4.0,97,0.00,,---,0.00,VWS V14.01,2013-09-18 12:59:00,
2013-09-18 08:04:00,53.2,52.4,27.88,SE,128,0.0,1.0,97,0.00,,---,0.00,VWS V14.01,2013-09-18 13:04:00,
2013-09-18 08:09:00,53.3,52.5,27.88,SE,132,0.0,0.0,97,0.00,,---,0.00,VWS V14.01,2013-09-18 13:09:00,
2013-09-18 08:14:00,53.4,52.6,27.88,SSE,165,0.0,3.0,97,0.00,,---,0.00,VWS V14.01,2013-09-18 13:14:00,
2013-09-18 08:19:00,53.4,52.6,27.88,SSE,155,1.0,5.0,97,0.00,,---,0.00,VWS V14.01,2013-09-18 13:19:00,
2013-09-18 08:24:00,53.5,52.7,27.88,SE,136,0.0,1.0,97,0.00,,---,0.00,VWS V14.01,2013-09-18 13:24:00,
2013-09-18 08:29:00,53.6,52.8,27.88,SSE,149,0.0,0.0,97,0.00,,---,0.00,VWS V14.01,2013-09-18 13:29:00,
2013-09-18 08:35:00,53.6,52.8,27.87,SSE,153,1.0,2.0,97,0.00,,---,0.00,VWS V14.01,2013-09-18 13:35:00,
2013-09-18 08:40:00,53.7,52.9,27.87,South,171,0.0,0.0,97,0.00,,---,0.00,VWS V14.01,2013-09-18 13:40:00,
2013-09-18 08:45:00,53.7,52.9,27.87,South,169,3.0,4.0,97,0.00,,---,0.00,VWS V14.01,2013-09-18 13:45:00,
2013-09-18 08:50:00,53.8,53.0,27.88,SSE,163,2.0,4.0,97,0.00,,---,0.00,VWS V14.01,2013-09-18 13:50:00,
2013-09-18 08:55:00,53.9,53.1,27.88,SSE,165,2.0,3.0,97,0.00,,---,0.00,VWS V14.01,2013-09-18 13:55:00,
2013-09-18 09:00:00,54.0,53.2,27.88,ESE,116,0.0,3.0,97,0.00,,---,0.00,VWS V14.01,2013-09-18 14:00:00,
2013-09-18 09:05:00,54.1,53.3,27.87,South,171,3.0,4.0,97,0.00,,---,0.00,VWS V14.01,2013-09-18 14:05:00,
2013-09-18 09:10:00,54.2,53.4,27.87,South,171,0.0,0.0,97,0.00,,---,0.00,VWS V14.01,2013-09-18 14:10:00,
2013-09-18 09:15:00,54.3,53.5,27.87,SSE,157,0.0,0.0,97,0.00,,---,0.00,VWS V14.01,2013-09-18 14:15:00,
2013-09-18 09:20:00,54.4,53.6,27.88,SSE,156,0.0,1.0,97,0.00,,---,0.00,VWS V14.01,2013-09-18 14:20:00,
2013-09-18 09:26:00,54.6,53.8,27.88,ESE,119,1.0,1.0,97,0.00,,---,0.00,VWS V14.01,2013-09-18 14:26:00,
2013-09-18 09:31:00,54.6,53.5,27.88,ESE,121,0.0,2.0,96,0.00,,---,0.00,VWS V14.01,2013-09-18 14:31:00,
2013-09-18 09:36:00,54.7,53.6,27.88,SSW,199,0.0,0.0,96,0.00,,---,0.00,VWS V14.01,2013-09-18 14:36:00,
2013-09-18 09:41:00,54.8,53.7,27.88,SSE,157,1.0,3.0,96,0.00,,---,0.00,VWS V14.01,2013-09-18 14:41:00,
2013-09-18 09:47:00,54.8,53.7,27.88,SSE,168,2.0,3.0,96,0.00,,---,0.00,VWS V14.01,2013-09-18 14:47:00,
2013-09-18 09:52:00,54.9,53.8,27.88,South,180,0.0,0.0,96,0.00,,---,0.00,VWS V14.01,2013-09-18 14:52:00,
2013-09-18 09:57:00,55.0,54.2,27.88,South,189,0.0,1.0,97,0.00,,---,0.00,VWS V14.01,2013-09-18 14:57:00,
2013-09-18 10:02:00,55.0,54.2,27.88,South,173,0.0,1.0,97,0.00,,---,0.00,VWS V14.01,2013-09-18 15:02:00,
2013-09-18 10:07:00,55.1,54.3,27.88,SSW,208,2.0,2.0,97,0.00,,---,0.00,VWS V14.01,2013-09-18 15:07:00,
2013-09-18 10:12:00,55.1,54.3,27.88,SE,131,0.0,2.0,97,0.00,,---,0.00,VWS V14.01,2013-09-18 15:12:00,
2013-09-18 10:18:00,55.2,54.1,27.88,SSW,207,1.0,1.0,96,0.00,,---,0.00,VWS V14.01,2013-09-18 15:18:00,
2013-09-18 10:23:00,55.3,54.2,27.88,SSW,207,0.0,1.0,96,0.00,,---,0.00,VWS V14.01,2013-09-18 15:23:00,
2013-09-18 10:28:00,55.4,54.3,27.88,SSW,207,1.0,1.0,96,0.00,,---,0.00,VWS V14.01,2013-09-18 15:28:00,
2013-09-18 10:33:00,55.5,54.7,27.87,SSW,207,0.0,2.0,97,0.00,,---,0.00,VWS V14.01,2013-09-18 15:33:00,
2013-09-18 10:38:00,55.6,54.8,27.87,SSW,205,0.0,1.0,97,0.00,,---,0.00,VWS V14.01,2013-09-18 15:38:00,
2013-09-18 10:43:00,55.7,54.6,27.87,SSE,163,0.0,1.0,96,0.00,,---,0.00,VWS V14.01,2013-09-18 15:43:00,
2013-09-18 10:48:00,55.9,54.8,27.88,SSE,163,0.0,0.0,96,0.00,,---,0.00,VWS V14.01,2013-09-18 15:48:00,
2013-09-18 10:53:00,56.1,55.0,27.88,SSW,200,0.0,1.0,96,0.00,,---,0.00,VWS V14.01,2013-09-18 15:53:00,
2013-09-18 10:59:00,56.3,55.2,27.88,SE,144,3.0,6.0,96,0.00,,---,0.00,VWS V14.01,2013-09-18 15:59:00,
2013-09-18 11:01:00,56.3,55.2,27.88,SE,143,0.0,0.0,96,0.00,,---,0.00,VWS V14.01,2013-09-18 16:01:00,
2013-09-18 11:06:00,56.5,55.4,27.88,SSE,161,0.0,1.0,96,0.00,,---,0.00,VWS V14.01,2013-09-18 16:06:00,
2013-09-18 11:11:00,56.7,55.3,27.88,SSE,167,0.0,5.0,95,0.00,,---,0.00,VWS V14.01,2013-09-18 16:11:00,
2013-09-18 11:16:00,57.0,55.6,27.88,SSE,154,2.0,4.0,95,0.00,,---,0.00,VWS V14.01,2013-09-18 16:16:00,
2013-09-18 11:21:00,57.3,55.9,27.87,East,85,0.0,0.0,95,0.00,,---,0.00,VWS V14.01,2013-09-18 16:21:00,
2013-09-18 11:26:00,57.6,55.9,27.87,SW,215,2.0,5.0,94,0.00,,---,0.00,VWS V14.01,2013-09-18 16:26:00,
2013-09-18 11:32:00,57.6,55.9,27.87,SSE,157,2.0,5.0,94,0.00,,---,0.00,VWS V14.01,2013-09-18 16:32:00,
2013-09-18 11:37:00,57.5,55.8,27.87,SSE,151,1.0,1.0,94,0.00,,---,0.00,VWS V14.01,2013-09-18 16:37:00,
2013-09-18 11:42:00,57.7,56.0,27.87,South,179,0.0,3.0,94,0.00,,---,0.00,VWS V14.01,2013-09-18 16:42:00,
2013-09-18 11:47:00,57.7,55.7,27.86,SSE,155,0.0,4.0,93,0.00,,---,0.00,VWS V14.01,2013-09-18 16:47:00,
2013-09-18 11:52:00,57.9,55.9,27.86,SE,144,2.0,3.0,93,0.00,,---,0.00,VWS V14.01,2013-09-18 16:52:00,
2013-09-18 11:57:00,58.0,56.0,27.86,SSW,193,0.0,3.0,93,0.00,,---,0.00,VWS V14.01,2013-09-18 16:57:00,
2013-09-18 12:02:00,58.3,56.3,27.86,ESE,122,4.0,7.0,93,0.00,,---,0.00,VWS V14.01,2013-09-18 17:02:00,
2013-09-18 12:08:00,58.3,56.3,27.86,SSE,148,3.0,3.0,93,0.00,,---,0.00,VWS V14.01,2013-09-18 17:08:00,
2013-09-18 12:13:00,58.2,56.2,27.86,SSE,158,2.0,4.0,93,0.00,,---,0.00,VWS V14.01,2013-09-18 17:13:00,
2013-09-18 12:18:00,58.2,56.2,27.85,South,176,0.0,0.0,93,0.00,,---,0.00,VWS V14.01,2013-09-18 17:18:00,
2013-09-18 12:23:00,58.4,56.4,27.85,South,182,3.0,4.0,93,0.00,,---,0.00,VWS V14.01,2013-09-18 17:23:00,
2013-09-18 12:28:00,58.4,56.4,27.85,SSE,160,0.0,3.0,93,0.00,,---,0.00,VWS V14.01,2013-09-18 17:28:00,
2013-09-18 12:33:00,58.9,56.9,27.85,SE,128,0.0,3.0,93,0.00,,---,0.00,VWS V14.01,2013-09-18 17:33:00,
2013-09-18 12:39:00,59.0,56.7,27.85,SSE,163,3.0,4.0,92,0.00,,---,0.00,VWS V14.01,2013-09-18 17:39:00,
2013-09-18 12:44:00,59.0,56.7,27.85,SSE,155,0.0,0.0,92,0.00,,---,0.00,VWS V14.01,2013-09-18 17:44:00,
2013-09-18 12:49:00,59.4,56.8,27.84,SSE,148,3.0,6.0,91,0.00,,---,0.00,VWS V14.01,2013-09-18 17:49:00,
2013-09-18 12:54:00,59.6,57.0,27.84,SSE,167,1.0,7.0,91,0.00,,---,0.00,VWS V14.01,2013-09-18 17:54:00,
2013-09-18 12:59:00,59.7,57.1,27.84,SE,146,1.0,8.0,91,0.00,,---,0.00,VWS V14.01,2013-09-18 17:59:00,
2013-09-18 13:04:00,59.8,57.2,27.84,SSE,159,1.0,3.0,91,0.00,,---,0.00,VWS V14.01,2013-09-18 18:04:00,
2013-09-18 13:09:00,60.3,57.7,27.84,SSE,161,1.0,3.0,91,0.00,,---,0.00,VWS V14.01,2013-09-18 18:09:00,
2013-09-18 13:14:00,60.9,58.0,27.84,SE,141,0.0,0.0,90,0.00,,---,0.00,VWS V14.01,2013-09-18 18:14:00,
2013-09-18 13:20:00,61.1,58.2,27.84,South,169,1.0,1.0,90,0.00,,---,0.00,VWS V14.01,2013-09-18 18:20:00,
2013-09-18 13:25:00,61.5,58.2,27.84,SSE,153,0.0,1.0,89,0.00,,---,0.00,VWS V14.01,2013-09-18 18:25:00,
2013-09-18 13:30:00,61.8,58.5,27.84,SSW,194,0.0,3.0,89,0.00,,---,0.00,VWS V14.01,2013-09-18 18:30:00,
2013-09-18 13:35:00,62.6,58.7,27.83,South,184,4.0,4.0,87,0.00,,---,0.00,VWS V14.01,2013-09-18 18:35:00,
2013-09-18 13:40:00,62.6,58.7,27.83,SW,218,2.0,2.0,87,0.00,,---,0.00,VWS V14.01,2013-09-18 18:40:00,
2013-09-18 13:45:00,62.3,58.7,27.83,SSW,200,0.0,1.0,88,0.00,,---,0.00,VWS V14.01,2013-09-18 18:45:00,
2013-09-18 13:50:00,62.5,58.9,27.83,SSW,193,0.0,4.0,88,0.00,,---,0.00,VWS V14.01,2013-09-18 18:50:00,
2013-09-18 13:56:00,62.8,58.9,27.83,SSW,192,2.0,2.0,87,0.00,,---,0.00,VWS V14.01,2013-09-18 18:56:00,
2013-09-18 14:01:00,62.7,58.5,27.83,SSW,207,0.0,0.0,86,0.00,,---,0.00,VWS V14.01,2013-09-18 19:01:00,
2013-09-18 14:06:00,63.1,59.2,27.82,SSW,205,0.0,0.0,87,0.00,,---,0.00,VWS V14.01,2013-09-18 19:06:00,
2013-09-18 14:12:00,63.6,59.0,27.82,SSW,196,3.0,4.0,85,0.00,,---,0.00,VWS V14.01,2013-09-18 19:12:00,
2013-09-18 14:17:00,63.7,59.4,27.81,SE,136,0.0,3.0,86,0.00,,---,0.00,VWS V14.01,2013-09-18 19:17:00,
2013-09-18 14:22:00,64.1,59.5,27.81,SSE,148,2.0,4.0,85,0.00,,---,0.00,VWS V14.01,2013-09-18 19:22:00,
2013-09-18 14:27:00,64.3,60.0,27.81,SSE,153,0.0,0.0,86,0.00,,---,0.00,VWS V14.01,2013-09-18 19:27:00,
2013-09-18 14:33:00,65.1,60.2,27.80,SSW,196,1.0,4.0,84,0.00,,---,0.00,VWS V14.01,2013-09-18 19:33:00,
2013-09-18 14:38:00,65.5,60.5,27.80,SSW,196,0.0,1.0,84,0.00,,---,0.00,VWS V14.01,2013-09-18 19:38:00,
2013-09-18 14:43:00,65.6,60.3,27.80,ESE,113,0.0,0.0,83,0.00,,---,0.00,VWS V14.01,2013-09-18 19:43:00,
2013-09-18 14:48:00,65.2,60.2,27.80,SSE,164,1.0,3.0,84,0.00,,---,0.00,VWS V14.01,2013-09-18 19:48:00,
2013-09-18 14:53:00,64.7,59.8,27.80,SSW,203,1.0,1.0,84,0.00,,---,0.00,VWS V14.01,2013-09-18 19:53:00,
2013-09-18 14:58:00,63.9,59.6,27.80,SSE,159,1.0,1.0,86,0.00,,---,0.00,VWS V14.01,2013-09-18 19:58:00,
2013-09-18 15:03:00,63.8,59.9,27.81,SSE,165,0.0,0.0,87,0.00,,---,0.00,VWS V14.01,2013-09-18 20:03:00,
2013-09-18 15:08:00,63.5,59.6,27.81,SSE,159,0.0,2.0,87,0.00,,---,0.00,VWS V14.01,2013-09-18 20:08:00,
2013-09-18 15:13:00,63.3,59.7,27.81,SSW,196,0.0,1.0,88,0.00,,---,0.00,VWS V14.01,2013-09-18 20:13:00,
2013-09-18 15:18:00,63.4,59.8,27.81,South,178,0.0,0.0,88,0.00,,---,0.00,VWS V14.01,2013-09-18 20:18:00,
2013-09-18 15:24:00,63.6,60.0,27.81,South,181,0.0,1.0,88,0.00,,---,0.00,VWS V14.01,2013-09-18 20:24:00,
2013-09-18 15:29:00,63.8,59.9,27.81,South,180,0.0,1.0,87,0.00,,---,0.00,VWS V14.01,2013-09-18 20:29:00,
2013-09-18 15:34:00,64.0,60.4,27.81,South,178,0.0,0.0,88,0.00,,---,0.00,VWS V14.01,2013-09-18 20:34:00,
2013-09-18 15:39:00,64.1,60.5,27.81,South,178,0.0,1.0,88,0.00,,---,0.00,VWS V14.01,2013-09-18 20:39:00,
2013-09-18 15:44:00,64.0,60.4,27.81,SSE,147,3.0,3.0,88,0.00,,---,0.00,VWS V14.01,2013-09-18 20:44:00,
2013-09-18 15:49:00,63.9,60.0,27.81,SSE,153,0.0,0.0,87,0.00,,---,0.00,VWS V14.01,2013-09-18 20:49:00,
2013-09-18 15:55:00,63.7,60.1,27.81,SSE,154,1.0,4.0,88,0.00,,---,0.00,VWS V14.01,2013-09-18 20:55:00,
2013-09-18 16:00:00,63.4,59.8,27.81,SSE,167,0.0,4.0,88,0.00,,---,0.00,VWS V14.01,2013-09-18 21:00:00,
2013-09-18 16:06:00,62.7,59.4,27.81,South,184,2.0,3.0,89,0.00,,---,0.00,VWS V14.01,2013-09-18 21:06:00,
2013-09-18 16:11:00,62.4,59.4,27.81,ESE,107,0.0,1.0,90,0.00,,---,0.00,VWS V14.01,2013-09-18 21:11:00,
2013-09-18 16:16:00,62.1,59.1,27.81,South,175,0.0,2.0,90,0.00,,---,0.00,VWS V14.01,2013-09-18 21:16:00,
2013-09-18 16:21:00,61.9,59.2,27.80,SE,140,2.0,3.0,91,0.00,,---,0.00,VWS V14.01,2013-09-18 21:21:00,
2013-09-18 16:26:00,61.5,58.8,27.80,SSE,147,2.0,6.0,91,0.00,,---,0.00,VWS V14.01,2013-09-18 21:26:00,
2013-09-18 16:31:00,61.1,58.5,27.80,SSE,162,4.0,5.0,91,0.00,,---,0.00,VWS V14.01,2013-09-18 21:31:00,
2013-09-18 16:36:00,60.7,58.4,27.80,South,181,2.0,4.0,92,0.00,,---,0.00,VWS V14.01,2013-09-18 21:36:00,
2013-09-18 16:41:00,60.6,58.3,27.80,South,186,5.0,5.0,92,0.00,,---,0.00,VWS V14.01,2013-09-18 21:41:00,
2013-09-18 16:46:00,60.2,58.2,27.80,SSE,167,0.0,1.0,93,0.00,,---,0.00,VWS V14.01,2013-09-18 21:46:00,
2013-09-18 16:51:00,60.1,58.1,27.81,SSE,167,0.0,1.0,93,0.00,,---,0.00,VWS V14.01,2013-09-18 21:51:00,
2013-09-18 16:56:00,59.8,57.8,27.81,SSE,160,1.0,3.0,93,0.00,,---,0.00,VWS V14.01,2013-09-18 21:56:00,
2013-09-18 17:02:00,59.6,57.6,27.81,SSE,166,2.0,2.0,93,0.00,,---,0.00,VWS V14.01,2013-09-18 22:02:00,
2013-09-18 17:07:00,59.6,57.9,27.81,SSE,166,1.0,1.0,94,0.00,,---,0.00,VWS V14.01,2013-09-18 22:07:00,
2013-09-18 17:12:00,59.4,57.7,27.81,SSE,157,0.0,5.0,94,0.00,,---,0.00,VWS V14.01,2013-09-18 22:12:00,
2013-09-18 17:17:00,59.3,57.6,27.81,SE,146,2.0,9.0,94,0.00,,---,0.00,VWS V14.01,2013-09-18 22:17:00,
2013-09-18 17:22:00,59.0,57.3,27.81,ESE,116,1.0,8.0,94,0.00,,---,0.00,VWS V14.01,2013-09-18 22:22:00,
2013-09-18 17:27:00,59.0,57.3,27.81,SW,229,0.0,3.0,94,0.00,,---,0.00,VWS V14.01,2013-09-18 22:27:00,
2013-09-18 17:32:00,59.0,57.3,27.81,SSW,211,0.0,7.0,94,0.00,,---,0.00,VWS V14.01,2013-09-18 22:32:00,
2013-09-18 17:38:00,58.7,57.0,27.81,ESE,111,1.0,3.0,94,0.00,,---,0.00,VWS V14.01,2013-09-18 22:38:00,
2013-09-18 17:43:00,58.6,57.2,27.81,SSW,192,0.0,1.0,95,0.00,,---,0.00,VWS V14.01,2013-09-18 22:43:00,
2013-09-18 17:48:00,58.6,57.2,27.81,SSE,164,1.0,1.0,95,0.00,,---,0.00,VWS V14.01,2013-09-18 22:48:00,
2013-09-18 17:53:00,58.5,57.1,27.81,SSE,154,2.0,6.0,95,0.00,,---,0.00,VWS V14.01,2013-09-18 22:53:00,
2013-09-18 17:58:00,58.5,57.1,27.81,South,170,0.0,1.0,95,0.00,,---,0.00,VWS V14.01,2013-09-18 22:58:00,
2013-09-18 18:03:00,58.6,57.2,27.80,SSE,158,4.0,4.0,95,0.00,,---,0.00,VWS V14.01,2013-09-18 23:03:00,
2013-09-18 18:08:00,58.8,57.4,27.80,SSE,156,2.0,3.0,95,0.00,,---,0.00,VWS V14.01,2013-09-18 23:08:00,
2013-09-18 18:13:00,59.0,57.6,27.80,SSW,213,6.0,6.0,95,0.00,,---,0.00,VWS V14.01,2013-09-18 23:13:00,
2013-09-18 18:18:00,59.0,57.6,27.80,SE,128,0.0,0.0,95,0.00,,---,0.00,VWS V14.01,2013-09-18 23:18:00,
2013-09-18 18:23:00,59.0,57.6,27.80,SSE,160,0.0,0.0,95,0.00,,---,0.00,VWS V14.01,2013-09-18 23:23:00,
2013-09-18 18:29:00,59.0,57.6,27.80,SSE,153,0.0,0.0,95,0.00,,---,0.00,VWS V14.01,2013-09-18 23:29:00,
2013-09-18 18:34:00,59.0,57.6,27.80,SSE,148,2.0,2.0,95,0.00,,---,0.00,VWS V14.01,2013-09-18 23:34:00,
2013-09-18 18:39:00,59.0,57.6,27.80,SSE,166,0.0,4.0,95,0.00,,---,0.00,VWS V14.01,2013-09-18 23:39:00,
2013-09-18 18:44:00,58.9,57.5,27.80,SSE,156,1.0,5.0,95,0.00,,---,0.00,VWS V14.01,2013-09-18 23:44:00,
2013-09-18 18:49:00,58.7,57.3,27.80,SSE,168,1.0,4.0,95,0.00,,---,0.00,VWS V14.01,2013-09-18 23:49:00,
2013-09-18 18:54:00,58.7,57.3,27.80,SE,130,0.0,4.0,95,0.00,,---,0.00,VWS V14.01,2013-09-18 23:54:00,
2013-09-18 18:59:00,58.6,57.5,27.80,SSE,152,2.0,2.0,96,0.00,,---,0.00,VWS V14.01,2013-09-18 23:59:00,
2013-09-18 19:05:00,58.6,57.5,27.80,SSW,194,2.0,2.0,96,0.00,,---,0.00,VWS V14.01,2013-09-19 00:05:00,
2013-09-18 19:10:00,58.5,57.4,27.80,SE,130,4.0,4.0,96,0.00,,---,0.00,VWS V14.01,2013-09-19 00:10:00,
2013-09-18 19:15:00,58.5,57.4,27.80,SSE,157,2.0,6.0,96,0.00,,---,0.00,VWS V14.01,2013-09-19 00:15:00,
2013-09-18 19:20:00,58.5,57.4,27.80,SE,146,0.0,4.0,96,0.00,,---,0.00,VWS V14.01,2013-09-19 00:20:00,
2013-09-18 19:25:00,58.5,57.4,27.80,SSE,149,2.0,4.0,96,0.00,,---,0.00,VWS V14.01,2013-09-19 00:25:00,
2013-09-18 19:30:00,58.4,57.3,27.80,SE,143,1.0,5.0,96,0.00,,---,0.00,VWS V14.01,2013-09-19 00:30:00,
2013-09-18 19:35:00,58.4,57.3,27.80,SSE,155,0.0,3.0,96,0.00,,---,0.00,VWS V14.01,2013-09-19 00:35:00,
2013-09-18 19:40:00,58.5,57.4,27.80,SE,142,2.0,4.0,96,0.00,,---,0.00,VWS V14.01,2013-09-19 00:40:00,
2013-09-18 19:45:00,58.5,57.4,27.80,SE,140,0.0,6.0,96,0.00,,---,0.00,VWS V14.01,2013-09-19 00:45:00,
2013-09-18 19:50:00,58.5,57.4,27.81,SE,146,2.0,6.0,96,0.00,,---,0.00,VWS V14.01,2013-09-19 00:50:00,
2013-09-18 19:56:00,58.6,57.5,27.81,SE,133,0.0,0.0,96,0.00,,---,0.00,VWS V14.01,2013-09-19 00:56:00,
2013-09-18 20:01:00,58.6,57.8,27.81,SSE,155,3.0,5.0,97,0.00,,---,0.00,VWS V14.01,2013-09-19 01:01:00,
2013-09-18 20:06:00,58.7,57.8,27.81,South,176,0.0,0.0,97,0.00,,---,0.00,VWS V14.01,2013-09-19 01:06:00,
2013-09-18 20:11:00,58.7,57.8,27.81,SSE,165,0.0,0.0,97,0.00,,---,0.00,VWS V14.01,2013-09-19 01:11:00,
2013-09-18 20:16:00,58.7,57.8,27.81,SSE,165,0.0,1.0,97,0.00,,---,0.00,VWS V14.01,2013-09-19 01:16:00,
2013-09-18 20:21:00,58.8,58.0,27.82,SSE,165,2.0,3.0,97,0.00,,---,0.00,VWS V14.01,2013-09-19 01:21:00,
2013-09-18 20:26:00,58.9,58.0,27.82,SSE,165,0.0,1.0,97,0.00,,---,0.00,VWS V14.01,2013-09-19 01:26:00,
2013-09-18 20:31:00,59.0,58.2,27.82,SSE,167,5.0,5.0,97,0.00,,---,0.00,VWS V14.01,2013-09-19 01:31:00,
2013-09-18 20:37:00,59.0,58.2,27.82,SE,135,4.0,5.0,97,0.00,,---,0.00,VWS V14.01,2013-09-19 01:37:00,
2013-09-18 20:42:00,59.0,58.2,27.82,SW,219,0.0,2.0,97,0.00,,---,0.00,VWS V14.01,2013-09-19 01:42:00,
2013-09-18 20:47:00,59.0,58.2,27.81,South,185,5.0,5.0,97,0.00,,---,0.00,VWS V14.01,2013-09-19 01:47:00,
2013-09-18 20:52:00,59.0,58.2,27.81,SE,136,0.0,2.0,97,0.00,,---,0.00,VWS V14.01,2013-09-19 01:52:00,
2013-09-18 20:57:00,59.0,58.2,27.81,SSE,149,0.0,0.0,97,0.00,,---,0.00,VWS V14.01,2013-09-19 01:57:00,
2013-09-18 21:02:00,59.0,58.2,27.81,SE,142,0.0,0.0,97,0.00,,---,0.00,VWS V14.01,2013-09-19 02:02:00,
2013-09-18 21:07:00,59.0,58.2,27.81,SSE,165,0.0,3.0,97,0.00,,---,0.00,VWS V14.01,2013-09-19 02:07:00,
2013-09-18 21:12:00,59.0,58.2,27.81,SSE,152,5.0,5.0,97,0.00,,---,0.00,VWS V14.01,2013-09-19 02:12:00,
2013-09-18 21:18:00,59.0,58.2,27.81,SSE,154,0.0,4.0,97,0.00,,---,0.00,VWS V14.01,2013-09-19 02:18:00,
2013-09-18 21:23:00,59.2,58.3,27.81,ESE,118,3.0,4.0,97,0.00,,---,0.00,VWS V14.01,2013-09-19 02:23:00,
2013-09-18 21:28:00,59.2,58.3,27.81,SSE,149,1.0,4.0,97,0.00,,---,0.00,VWS V14.01,2013-09-19 02:28:00,
2013-09-18 21:33:00,59.3,58.5,27.81,SE,143,5.0,5.0,97,0.00,,---,0.00,VWS V14.01,2013-09-19 02:33:00,
2013-09-18 21:38:00,59.4,58.5,27.81,SE,130,0.0,4.0,97,0.00,,---,0.00,VWS V14.01,2013-09-19 02:38:00,
2013-09-18 21:43:00,59.4,58.5,27.81,South,183,0.0,0.0,97,0.00,,---,0.00,VWS V14.01,2013-09-19 02:43:00,
2013-09-18 21:48:00,59.4,58.5,27.81,SSE,152,0.0,3.0,97,0.00,,---,0.00,VWS V14.01,2013-09-19 02:48:00,
2013-09-18 21:53:00,59.5,58.7,27.81,SE,146,3.0,6.0,97,0.00,,---,0.00,VWS V14.01,2013-09-19 02:53:00,
2013-09-18 21:59:00,59.5,58.7,27.81,SSE,148,2.0,2.0,97,0.00,,---,0.00,VWS V14.01,2013-09-19 02:59:00,
2013-09-18 22:04:00,59.5,58.7,27.81,SSE,160,2.0,3.0,97,0.00,,---,0.00,VWS V14.01,2013-09-19 03:04:00,
2013-09-18 22:09:00,59.6,58.8,27.81,SSE,155,2.0,5.0,97,0.00,,---,0.00,VWS V14.01,2013-09-19 03:09:00,
2013-09-18 22:14:00,59.6,58.8,27.81,SSE,167,4.0,4.0,97,0.00,,---,0.00,VWS V14.01,2013-09-19 03:14:00,
2013-09-18 22:19:00,59.6,58.8,27.81,SSE,158,2.0,4.0,97,0.00,,---,0.00,VWS V14.01,2013-09-19 03:19:00,
2013-09-18 22:25:00,59.7,58.8,27.81,SSW,202,5.0,5.0,97,0.00,,---,0.00,VWS V14.01,2013-09-19 03:25:00,
2013-09-18 22:30:00,59.7,58.8,27.81,SSW,204,0.0,3.0,97,0.00,,---,0.00,VWS V14.01,2013-09-19 03:30:00,
2013-09-18 22:35:00,59.7,58.8,27.82,SSE,155,0.0,3.0,97,0.00,,---,0.00,VWS V14.01,2013-09-19 03:35:00,
2013-09-18 22:40:00,59.8,59.0,27.82,SSE,153,3.0,4.0,97,0.00,,---,0.00,VWS V14.01,2013-09-19 03:40:00,
2013-09-18 22:45:00,59.8,59.0,27.82,SSE,167,2.0,4.0,97,0.00,,---,0.00,VWS V14.01,2013-09-19 03:45:00,
2013-09-18 22:51:00,59.8,59.0,27.81,SSE,153,0.0,0.0,97,0.00,,---,0.00,VWS V14.01,2013-09-19 03:51:00,
2013-09-18 22:56:00,59.9,59.0,27.81,SE,146,3.0,6.0,97,0.00,,---,0.00,VWS V14.01,2013-09-19 03:56:00,
2013-09-18 23:01:00,60.0,59.2,27.81,SE,142,4.0,4.0,97,0.00,,---,0.00,VWS V14.01,2013-09-19 04:01:00,
2013-09-18 23:02:00,60.0,59.2,27.81,SE,146,2.0,3.0,97,0.00,,---,0.00,VWS V14.01,2013-09-19 04:02:00,
2013-09-18 23:03:00,60.0,59.2,27.81,SSW,204,4.0,5.0,97,0.00,,---,0.00,VWS V14.01,2013-09-19 04:03:00,
2013-09-18 23:04:00,60.0,59.2,27.81,South,171,4.0,4.0,97,0.00,,---,0.00,VWS V14.01,2013-09-19 04:04:00,
2013-09-18 23:09:00,60.0,59.2,27.81,SSE,157,0.0,2.0,97,0.00,,---,0.00,VWS V14.01,2013-09-19 04:09:00,
2013-09-18 23:14:00,60.1,59.2,27.81,SE,127,5.0,5.0,97,0.00,,---,0.00,VWS V14.01,2013-09-19 04:14:00,
2013-09-18 23:19:00,60.2,59.3,27.81,SE,142,3.0,3.0,97,0.00,,---,0.00,VWS V14.01,2013-09-19 04:19:00,
2013-09-18 23:24:00,60.3,59.5,27.81,SSE,163,5.0,5.0,97,0.00,,---,0.00,VWS V14.01,2013-09-19 04:24:00,
2013-09-18 23:29:00,60.4,59.5,27.81,SSE,165,0.0,2.0,97,0.00,,---,0.00,VWS V14.01,2013-09-19 04:29:00,
2013-09-18 23:34:00,60.5,59.7,27.81,SSE,164,2.0,5.0,97,0.00,,---,0.00,VWS V14.01,2013-09-19 04:34:00,
2013-09-18 23:39:00,60.6,59.8,27.81,SSE,159,5.0,5.0,97,0.00,,---,0.00,VWS V14.01,2013-09-19 04:39:00,
2013-09-18 23:45:00,60.7,59.8,27.81,South,173,3.0,3.0,97,0.00,,---,0.00,VWS V14.01,2013-09-19 04:45:00,
2013-09-18 23:50:00,60.7,59.8,27.81,SE,130,1.0,4.0,97,0.00,,---,0.00,VWS V14.01,2013-09-19 04:50:00,
2013-09-18 23:55:00,60.7,59.8,27.81,SE,144,1.0,4.0,97,0.00,,---,0.00,VWS V14.01,2013-09-19 04:55:00,